Location: Gaast
(52.9002°N, 5.8891°E)
Time: 11:16:03
(UTC+00:00)

Cosmos 2278 Rocket - Pass Details

Date: 18 November 2025
Orbit: 841 x 843 km, 71.0° (Epoch: 10 December)

Event Time Altitude Azimuth Distance (km) Brightness Sun altitude
Rises 19:21:43 0° 253° (WSW) 3,395 6.2 -33.3°
Reaches altitude 10° 19:24:33 10° 266° (W) 2,463 5.4 -33.8°
Maximum altitude 19:29:18 27° 323° (NW) 1,580 3.9 -34.5°
Enters shadow 19:30:26 25° 342° (NNW) 1,646 3.9 -34.6°
